GFSCGP_700_rhum_210.txt.gz
RH
45 40 27 23 21 18 14 10 9 8 9 10 11 11 11 9 9 10 11 11 11 3 3 12 18 19 18 23 29 32 37 16 18 14 16 22 23 24 25 29 30 39 39 57
46 39 29 24 19 19 18 15 10 9 9 10 10 10 10 11 10 9 8 8 9 9 4 7 13 16 15 14 13 16 16 23 15 18 21 25 25 26 26 27 31 36 39 39
43 33 32 25 21 19 17 16 14 13 11 10 10 10 10 10 9 6 7 8 9 9 7 9 12 12 13 11 7 10 12 13 20 23 28 33 35 32 30 27 30 34 36 39
42 36 29 27 24 20 18 16 15 15 14 13 10 10 9 8 8 7 8 8 8 8 6 8 12 13 14 11 6 10 10 13 22 28 30 30 36 36 32 29 28 32 34 40
40 36 32 26 23 24 20 16 16 15 15 14 13 12 11 8 8 8 8 8 8 15 16 15 15 19 22 9 7 10 9 11 24 29 30 30 36 38 35 34 29 31 36 41
32 34 32 28 25 23 22 19 18 18 16 18 15 15 13 10 8 8 8 8 9 15 20 21 25 27 16 9 10 11 11 14 26 29 28 30 32 49 42 37 32 38 38 40
33 30 30 29 27 25 23 20 21 23 23 23 16 13 12 9 9 8 8 11 13 18 20 23 25 25 18 9 12 14 17 20 30 31 31 31 32 39 40 35 32 36 36 36
31 29 29 28 27 24 25 24 24 27 24 16 13 11 10 9 9 10 9 11 15 20 22 23 21 13 10 12 15 18 20 24 32 34 33 33 32 33 32 32 33 34 33 38
26 24 23 28 25 26 24 24 24 22 19 22 13 10 9 10 10 12 13 11 10 11 13 28 26 19 9 15 14 19 21 28 34 35 35 36 34 33 34 33 33 34 38 46
34 24 20 20 23 27 27 22 24 23 35 35 18 13 12 11 12 11 11 11 11 12 24 9 10 11 12 17 13 19 24 30 34 38 36 40 40 41 44 44 49 51 55 59
39 34 24 18 22 23 29 27 23 22 24 33 31 20 14 10 10 15 17 16 10 10 12 20 12 13 15 19 12 20 27 32 37 42 40 43 44 45 48 50 52 55 57 58
50 40 37 26 19 21 24 28 25 26 28 26 24 25 13 16 20 21 24 23 22 16 25 35 26 15 19 16 11 21 32 35 39 48 48 49 48 48 49 52 55 56 55 52
50 51 48 37 27 22 24 27 25 23 26 28 30 25 18 10 12 12 22 24 26 31 40 37 24 22 19 14 14 22 33 39 42 51 52 52 54 53 48 37 29 27 27 28
47 50 50 45 32 25 25 26 26 23 25 30 26 22 21 17 19 18 16 25 32 35 42 34 44 32 24 12 14 24 32 39 45 54 53 49 50 37 33 31 28 28 29 30
75 60 50 48 37 32 26 29 27 26 23 27 28 23 16 18 16 20 22 26 27 37 43 37 33 48 29 18 20 28 34 40 48 55 53 53 43 36 34 31 31 34 35 36
83 95 82 52 44 37 32 25 27 28 27 24 25 28 20 21 18 16 30 34 34 34 41 48 52 44 37 32 28 37 38 45 56 60 53 50 41 40 42 46 46 46 46 45
99 99 94 85 54 42 39 34 28 30 27 26 26 21 19 26 22 19 18 24 35 38 44 47 48 49 49 34 35 44 46 50 69 66 54 48 45 49 56 62 61 63 68 70
97 98 99 97 68 68 45 34 31 31 29 26 24 17 17 21 20 23 23 24 25 29 36 38 38 50 58 40 50 59 60 56 74 74 57 53 56 62 70 78 84 94 100 100
38 96 98 98 82 61 49 44 40 33 28 33 31 26 22 21 22 26 20 26 29 32 37 44 53 58 61 62 59 63 63 62 66 79 72 62 66 77 87 94 99 100 100 100
35 49 94 99 94 81 57 44 39 41 43 20 21 28 27 25 32 28 30 30 34 37 37 39 41 48 57 69 59 64 61 65 69 75 87 88 93 98 100 100 100 100 100 98
78 89 99 99 98 64 53 46 37 44 41 12 16 26 27 34 35 36 39 39 40 40 42 40 45 59 65 78 77 70 65 70 77 94 100 100 100 100 100 100 99 99 98 99
60 82 98 99 99 84 50 43 37 35 33 35 29 29 28 35 34 34 38 40 42 42 45 56 69 74 74 59 58 72 79 92 98 100 100 100 100 100 100 98 98 97 93 90
71 55 98 95 83 46 47 40 36 33 40 44 45 36 43 48 50 45 39 39 48 38 52 59 51 49 50 57 68 87 97 100 100 100 100 100 100 99 99 97 78 50 30 16
42 40 74 99 71 60 44 51 39 42 46 64 61 58 60 60 50 51 51 47 41 46 53 50 48 56 58 62 83 99 100 100 100 100 99 100 100 99 94 61 35 28 27 25
96 91 99 89 72 64 62 58 54 59 65 60 63 65 62 67 64 51 50 61 54 53 54 53 53 57 72 89 97 100 100 100 99 100 100 99 97 86 62 41 34 29 23 20
67 68 99 98 74 74 68 70 76 80 79 69 66 73 73 74 72 60 52 67 66 61 60 58 56 79 91 99 100 100 99 99 100 99 98 97 87 58 40 32 29 23 17 12

GFSCGP_700_rhum_216.txt.gz
RH
19 38 39 22 14 15 18 17 18 14 10 14 13 15 11 11 9 9 9 10 10 8 9 9 9 8 10 13 20 18 16 17 16 21 22 17 21 30 26 21 24 25 26 30
52 31 18 27 21 20 22 20 14 13 10 12 13 14 14 12 10 9 10 10 11 10 9 8 9 9 9 7 18 22 20 19 15 13 14 20 27 27 22 22 26 28 31 34
45 15 20 34 26 23 22 19 15 14 8 11 17 16 12 12 9 10 10 9 9 8 7 6 8 8 9 9 10 19 21 18 15 14 15 15 20 19 20 21 29 31 33 32
56 25 38 30 24 22 23 13 20 20 21 19 16 18 12 12 12 11 11 11 9 7 7 8 8 8 9 9 10 12 17 14 15 14 15 17 19 18 19 26 31 32 34 36
36 22 21 56 22 20 20 16 23 24 22 21 19 20 16 11 12 12 11 10 9 8 8 8 7 8 9 9 9 11 13 13 14 14 16 18 16 16 22 30 31 34 37 38
37 29 41 17 19 40 22 30 24 24 25 31 20 23 16 14 11 11 11 10 8 7 8 8 8 8 9 9 9 10 12 13 15 15 17 13 14 17 26 31 31 33 65 82
66 63 34 47 32 37 44 36 36 37 36 32 22 23 19 15 11 9 10 10 8 5 7 9 9 9 8 9 8 11 13 15 15 17 13 15 16 19 27 31 31 37 70 73
71 63 62 32 50 38 32 41 42 48 43 29 22 21 19 15 14 12 10 7 5 6 5 11 10 9 9 8 10 13 15 16 20 14 13 14 18 21 28 32 34 34 45 68
65 66 53 32 31 47 35 39 37 37 32 34 23 21 20 17 14 11 7 6 6 8 10 12 10 10 9 14 19 21 22 25 20 13 9 14 19 24 28 34 34 37 36 39
66 66 51 41 38 45 44 27 41 37 47 46 31 26 22 14 10 12 17 12 8 9 11 11 11 10 9 17 23 23 25 27 14 14 8 11 17 24 28 34 34 39 37 36
80 70 61 54 47 40 36 41 39 38 35 41 40 29 22 16 15 14 15 13 9 9 12 11 11 10 12 19 22 22 23 14 15 15 8 11 16 22 29 33 35 38 41 39
83 84 77 64 48 45 44 33 36 38 37 34 32 31 18 15 12 7 9 14 14 12 14 12 12 12 12 10 10 11 11 10 12 14 10 11 14 18 25 32 37 39 42 44
69 89 93 74 65 53 57 43 37 34 36 36 41 35 25 17 18 16 16 18 19 18 18 16 16 15 14 9 10 10 10 12 10 12 12 11 13 16 22 32 38 44 46 49
99 99 96 75 61 52 46 46 42 43 42 37 36 33 30 26 18 15 19 20 23 22 22 20 17 18 14 10 12 11 12 11 12 12 16 11 11 16 19 27 40 49 51 51
80 98 99 98 97 79 69 56 47 46 41 43 36 34 30 28 27 20 9 10 12 19 17 18 18 18 17 16 15 16 18 16 17 18 21 17 13 16 20 30 41 50 53 57
78 92 94 96 97 99 98 89 99 84 63 44 38 36 30 28 27 23 22 19 18 22 20 18 19 22 23 24 23 25 24 25 24 27 26 26 19 17 25 36 50 60 65 72
87 77 90 94 82 84 96 76 71 74 70 70 48 36 31 32 29 25 21 20 19 23 23 22 24 24 25 28 30 34 33 28 30 35 35 32 22 20 31 42 57 70 96 99
90 90 92 85 79 93 57 51 56 52 66 65 67 43 35 32 31 30 26 22 20 20 22 33 38 42 40 39 36 35 37 37 37 44 44 37 34 28 38 46 58 94 100 94
82 100 96 96 79 65 56 55 56 64 52 54 60 58 47 32 35 34 31 28 24 22 20 18 19 20 19 22 37 37 47 46 46 47 40 39 38 37 49 55 56 72 80 78
50 86 99 96 96 78 46 37 28 29 50 27 27 30 49 40 56 33 32 30 28 25 23 21 22 24 19 26 35 47 52 51 46 42 43 44 49 59 69 76 69 75 86 82
66 66 96 92 94 86 47 30 43 64 60 11 11 42 56 58 60 34 36 34 31 29 27 26 26 28 26 24 27 39 50 45 44 51 48 59 72 80 81 87 80 98 99 100
70 91 97 100 95 90 41 30 71 36 20 18 12 12 24 36 53 45 48 34 34 32 28 26 25 24 26 27 30 34 42 49 49 55 61 74 85 87 89 88 88 94 100 100
84 75 62 66 63 48 36 44 36 36 47 39 18 22 42 21 47 45 48 38 32 32 32 29 29 34 33 33 34 39 48 46 47 59 72 88 94 94 88 94 98 100 100 100
58 61 72 68 57 41 36 24 43 51 43 38 46 35 42 56 50 44 43 38 36 31 29 29 41 43 46 48 50 48 43 45 50 52 64 93 100 100 92 93 100 100 100 100
72 79 64 70 45 30 32 23 21 28 38 38 28 33 61 52 55 52 36 35 38 38 38 46 49 49 45 43 46 47 47 48 51 61 74 87 84 89 100 100 100 100 100 99
64 62 91 73 38 51 37 26 26 33 42 27 44 30 69 62 64 63 46 40 41 46 54 57 61 58 55 51 45 45 50 53 61 65 73 92 98 100 100 100 99 99 98 98

GFSCGP_700_rhum_219.txt.gz
RH
26 40 50 18 18 22 17 18 12 12 8 9 8 12 10 12 10 7 6 7 9 8 7 7 8 8 8 10 11 9 14 15 14 17 16 18 19 29 31 34 35 33 25 28
48 34 20 28 26 26 28 22 17 15 14 14 10 10 9 6 7 7 9 8 9 10 7 8 8 9 10 10 10 11 10 18 20 19 15 17 16 20 31 35 26 22 26 28
52 12 15 33 40 37 33 31 20 19 16 14 16 12 8 8 6 6 9 9 9 10 10 8 9 10 10 10 10 10 9 9 22 24 18 15 14 16 18 19 21 22 32 40
59 27 42 31 38 34 37 21 24 29 26 24 13 14 8 3 6 11 11 9 8 10 10 10 9 9 10 9 9 10 10 11 13 24 18 17 15 16 20 23 20 23 29 40
56 45 32 58 50 29 27 24 28 29 23 26 22 26 13 10 7 9 11 10 9 10 10 10 8 8 9 9 9 9 10 10 11 14 14 15 16 17 22 18 21 29 31 32
48 64 64 39 40 45 33 35 35 35 27 36 24 26 16 13 4 5 10 12 11 11 11 8 8 9 9 8 8 10 10 9 10 12 13 15 16 19 17 17 21 32 34 35
53 53 61 54 45 46 57 56 49 44 51 39 22 30 21 14 8 5 6 11 12 11 10 9 8 8 8 8 8 9 9 9 10 11 14 16 18 15 14 16 21 30 33 33
86 72 64 42 46 28 28 56 53 57 39 30 28 29 19 15 11 11 8 6 10 11 11 10 9 8 7 9 9 9 10 11 11 14 15 18 18 12 10 16 22 29 32 34
80 81 64 44 39 48 48 55 44 43 38 42 27 23 20 16 15 9 8 7 6 6 6 6 6 5 6 9 10 9 9 12 15 18 20 23 13 9 9 15 22 26 32 33
80 82 69 56 57 46 54 35 44 52 60 57 41 32 24 18 17 14 9 7 7 7 4 4 6 7 10 9 11 10 14 15 17 20 23 20 17 13 8 14 18 25 30 32
100 90 72 67 62 54 50 54 52 43 45 52 50 38 27 22 19 12 8 8 17 15 12 6 9 10 10 10 13 12 18 21 24 24 25 26 15 14 8 12 15 21 26 33
80 96 95 79 59 59 51 48 49 53 48 44 41 40 28 22 18 13 12 16 14 11 13 9 10 10 10 11 14 15 20 24 27 23 27 17 14 14 8 10 12 17 23 30
91 94 97 85 75 60 68 58 52 50 47 46 51 44 32 25 20 16 16 11 7 8 11 11 10 12 12 13 14 16 23 25 25 21 18 15 14 13 12 9 11 14 18 28
89 90 96 92 68 62 53 61 60 61 54 46 45 42 36 33 29 23 19 16 16 17 17 18 17 17 19 21 23 25 21 15 13 12 13 16 16 17 16 13 10 15 21 28
91 95 89 76 97 95 90 58 61 70 70 80 58 44 37 37 34 30 28 22 13 21 20 20 24 31 26 23 21 19 16 15 17 15 16 20 20 14 22 20 18 13 19 27
73 91 98 98 98 99 95 89 84 100 91 91 71 62 38 37 38 36 34 31 21 15 16 14 13 13 16 19 25 20 18 18 17 19 22 25 25 22 25 28 28 21 16 26
91 93 98 96 91 98 98 90 94 89 92 77 83 63 45 43 42 40 36 34 30 24 22 23 18 24 21 19 21 24 21 22 24 25 27 31 26 29 34 36 33 30 25 23
90 93 100 95 91 95 71 55 49 53 51 46 52 62 50 44 44 45 39 34 33 32 28 25 23 20 25 27 22 21 24 28 30 34 35 29 30 35 42 44 37 35 33 34
74 81 98 94 82 74 70 66 57 56 43 40 32 24 39 44 53 42 39 37 35 33 31 29 26 22 23 29 33 43 43 45 32 42 38 31 36 45 48 42 40 38 39 42
40 53 85 90 91 88 55 55 59 54 64 52 39 15 17 23 30 37 37 36 36 35 33 30 30 27 25 25 24 22 24 33 35 44 43 46 49 50 46 43 44 50 45 51
59 78 100 99 90 75 45 51 63 66 54 19 23 20 15 18 17 19 14 30 38 34 35 34 32 30 28 26 25 25 23 25 26 44 46 56 55 51 48 46 53 73 76 62
76 81 87 95 96 85 29 24 65 47 35 24 26 30 35 15 14 18 13 20 38 39 38 35 34 33 30 28 27 25 27 28 27 27 29 58 56 60 55 58 66 79 80 75
98 76 68 79 68 48 40 31 19 34 43 26 24 27 25 29 20 11 10 19 28 25 46 37 32 33 33 31 29 27 28 27 26 27 46 61 63 60 59 64 78 85 91 77
71 62 77 83 59 57 52 45 35 34 36 32 32 45 42 39 21 16 23 29 29 40 53 48 40 30 29 34 33 30 31 32 31 44 64 64 64 64 68 66 83 83 99 92
73 89 79 77 66 59 56 52 51 55 51 50 34 26 25 25 20 15 18 34 42 48 51 46 43 42 32 32 32 33 36 39 57 59 62 68 73 74 70 98 99 100 99 94
65 66 72 76 49 80 64 45 48 49 46 39 31 25 22 26 23 13 16 43 32 31 46 45 38 43 38 31 37 48 49 52 56 64 61 58 54 82 98 100 100 89 93 98

GFSCGP_700_rhum_225.txt.gz
RH
52 53 35 11 15 12 19 21 18 12 10 12 12 13 8 5 4 5 6 8 11 12 12 12 12 11 10 7 7 8 8 11 13 15 17 20 16 18 18 22 27 38 42 34
52 51 18 19 22 24 26 30 24 18 20 18 13 9 11 8 6 5 6 5 6 7 10 12 12 12 9 8 7 6 8 9 10 11 13 21 20 18 20 22 23 29 34 34
37 9 27 30 37 42 44 47 41 32 28 26 25 14 11 8 6 5 4 4 5 4 4 6 8 8 6 5 4 6 8 8 10 11 12 16 18 22 20 21 25 25 25 24
18 19 30 37 39 45 59 41 47 48 51 40 25 19 12 13 6 5 4 4 4 4 4 4 5 7 5 4 4 7 8 10 10 9 10 12 18 19 17 16 16 17 20 28
27 14 19 32 37 47 48 50 51 47 53 52 42 34 22 12 9 4 4 4 4 4 4 4 4 7 7 6 6 7 8 10 11 10 10 10 10 15 18 20 20 20 21 27
49 54 49 35 36 37 51 49 44 52 53 51 39 41 22 19 8 4 4 4 4 4 4 6 6 5 8 8 8 8 10 10 10 10 10 10 9 10 15 16 18 19 19 24
31 76 74 71 63 56 58 62 58 58 55 50 36 42 28 13 9 6 4 4 4 5 4 4 6 8 8 9 10 10 10 9 10 10 9 9 10 10 12 16 19 17 18 16
53 52 55 48 69 70 62 54 49 46 37 31 35 38 30 16 9 7 7 11 9 7 4 4 7 11 10 10 11 11 10 9 10 9 8 8 10 10 11 15 16 16 17 12
69 73 54 59 47 60 72 74 48 51 54 54 36 33 30 18 15 10 10 5 4 8 9 6 7 11 11 11 12 11 11 10 9 9 8 8 9 10 11 15 15 17 16 10
60 60 67 81 71 64 63 59 73 75 72 62 42 37 26 18 16 13 9 10 6 7 7 8 8 10 12 12 12 11 10 10 9 8 8 9 9 10 12 14 16 18 14 12
81 93 67 62 66 73 72 70 63 59 62 61 54 44 35 24 25 26 18 15 14 9 6 6 7 9 9 10 11 11 10 9 8 8 8 9 10 11 12 16 18 24 19 15
74 79 78 76 68 77 86 71 65 67 56 52 52 48 33 29 24 16 18 21 21 19 18 16 15 11 11 13 9 9 8 6 5 5 10 8 9 12 15 19 25 27 22 14
97 92 75 54 57 61 70 91 98 80 62 58 57 49 39 31 23 21 24 18 20 23 24 23 22 20 17 14 11 11 9 7 6 8 12 9 11 14 19 25 27 28 17 14
78 90 96 83 73 87 80 74 91 99 99 84 72 53 48 45 40 32 21 24 26 24 24 24 23 20 19 19 21 20 11 10 10 12 14 12 14 19 24 30 32 22 15 14
97 89 64 59 84 84 98 71 76 80 96 98 91 82 58 49 48 45 46 35 28 20 18 22 20 24 18 19 21 25 19 12 12 13 18 18 20 22 27 35 30 19 17 20
95 88 88 88 81 91 98 92 89 68 69 89 99 96 79 68 65 57 49 44 35 32 20 27 24 24 25 19 20 22 32 32 18 17 21 22 24 25 36 33 20 19 24 27
89 94 97 84 82 85 90 46 49 55 63 61 54 55 49 48 53 46 56 58 53 47 39 25 24 25 24 24 23 22 24 31 53 46 33 32 31 36 37 23 22 23 31 31
72 73 99 90 89 90 53 51 47 47 38 37 33 36 30 35 38 45 67 72 62 56 48 42 37 38 35 30 18 23 19 26 26 41 65 56 49 46 30 26 27 29 35 36
45 59 100 93 76 64 58 50 52 53 32 34 41 30 18 17 18 20 26 51 46 38 40 42 47 41 39 37 35 34 25 21 24 24 25 32 53 62 41 32 29 35 41 42
64 87 100 93 88 73 47 23 28 44 74 35 28 18 16 14 26 10 12 17 18 14 16 30 33 36 43 41 40 36 33 29 25 22 30 31 37 47 61 46 41 45 53 55
83 99 98 98 95 85 49 33 60 73 45 12 22 27 30 32 24 13 25 22 28 23 16 16 16 23 28 33 39 39 38 34 26 28 25 30 26 38 51 57 57 58 63 67
87 95 98 96 97 86 31 61 64 32 40 44 48 44 47 47 48 35 21 27 26 25 19 18 15 14 18 26 32 36 36 36 34 30 30 29 25 25 34 44 53 54 61 76
94 77 80 95 82 60 70 66 65 65 63 60 67 67 65 56 55 45 19 37 39 36 28 28 26 16 15 17 21 26 32 35 36 33 30 31 29 27 27 34 33 37 48 64
92 87 86 81 55 59 55 78 92 90 84 69 71 66 69 64 55 47 43 30 49 44 38 35 28 20 16 21 22 18 22 30 31 36 32 31 30 28 29 30 29 32 43 48
89 98 88 81 56 52 62 83 83 96 96 89 87 75 65 62 47 43 35 30 41 44 37 30 24 20 15 15 21 18 19 27 32 31 35 33 32 32 31 30 30 30 34 43
73 75 84 65 66 71 80 82 79 73 69 65 59 52 50 54 38 30 38 29 29 36 33 30 26 21 15 14 13 20 23 23 26 36 34 35 33 34 33 32 32 32 36 65

GFSCGP_700_rhum_231.txt.gz
RH
35 43 43 35 31 26 19 15 13 15 12 9 12 13 10 9 7 8 12 13 14 17 31 42 45 49 30 43 21 12 13 11 13 12 10 10 11 17 19 21 26 31 27 30
41 39 34 36 31 28 25 21 17 13 12 13 13 14 12 9 8 7 9 12 12 13 17 24 36 49 49 43 22 13 11 11 11 11 13 13 14 16 18 19 20 19 19 26
42 26 31 33 30 30 27 26 22 18 15 17 18 18 16 10 9 9 8 10 12 14 15 16 19 29 46 25 13 12 11 11 11 11 10 13 18 18 15 16 18 18 18 18
49 34 22 27 30 29 28 28 30 26 20 18 20 18 15 13 11 11 12 12 13 14 15 18 18 20 22 14 12 12 12 12 12 12 12 11 9 9 9 10 12 18 20 19
48 41 27 21 26 30 29 32 32 34 31 28 24 22 19 15 11 10 11 12 14 14 16 17 18 18 20 21 14 12 12 12 12 12 9 8 8 7 10 11 12 12 18 18
58 57 37 28 24 26 30 32 33 36 36 33 30 26 22 18 14 12 9 10 12 12 12 14 16 17 17 18 19 18 10 10 10 9 7 7 8 8 10 10 11 12 14 18
41 43 61 48 44 29 29 34 32 34 38 40 27 28 25 18 16 15 13 11 13 14 15 15 15 17 15 13 12 15 14 3 5 7 8 7 8 8 10 10 11 11 11 17
18 19 24 43 46 38 32 33 31 35 30 25 26 24 21 20 20 19 18 18 19 19 20 22 20 18 16 15 11 6 4 3 3 4 8 8 8 8 9 10 10 10 10 10
30 21 13 11 14 41 37 31 27 27 24 23 18 18 21 18 18 18 20 22 20 22 21 20 24 24 14 14 15 5 3 4 5 4 6 9 9 9 10 10 10 11 10 10
73 54 34 28 25 25 26 30 30 28 35 34 22 19 16 18 18 19 21 24 24 24 22 21 22 24 23 11 9 5 4 4 7 8 8 10 10 10 10 10 10 10 10 10
81 80 45 34 35 40 34 34 31 29 30 31 28 20 17 18 20 22 25 28 31 33 28 25 24 30 35 16 12 9 7 9 9 11 10 11 11 11 11 10 10 10 10 10
93 89 86 47 34 28 32 38 52 35 30 31 33 25 18 18 18 19 21 25 29 31 34 38 40 40 39 38 25 23 14 8 12 14 13 11 12 12 11 11 10 10 10 10
96 85 64 47 39 36 36 33 54 76 62 46 34 30 27 24 24 28 30 32 35 34 35 35 36 38 44 42 46 33 16 16 15 13 12 13 13 12 11 11 11 11 11 11
80 87 74 62 61 78 76 63 43 42 87 79 53 43 32 38 38 36 37 39 38 39 38 38 40 47 50 37 28 26 26 24 20 19 18 15 10 11 12 12 12 12 11 10
98 96 84 75 66 63 79 57 53 48 46 81 75 62 75 62 52 58 56 56 57 58 57 55 54 53 58 59 38 25 25 24 25 23 21 20 18 13 9 8 7 8 9 9
96 94 91 84 81 67 58 56 61 55 53 47 46 46 49 52 59 54 52 50 54 53 56 61 62 58 61 58 37 24 22 23 22 24 24 26 27 17 12 10 10 9 9 10
93 90 88 87 70 62 69 51 61 49 46 46 46 49 44 40 38 42 42 42 46 48 45 54 61 60 62 63 60 40 24 22 20 20 24 24 23 29 28 17 12 12 13 12
99 95 88 93 73 85 50 43 38 34 34 34 36 38 38 36 35 37 37 34 35 38 48 47 50 60 65 63 64 34 31 29 22 19 19 18 19 20 43 32 22 19 15 16
90 92 90 94 76 56 44 39 37 36 36 34 37 37 33 37 39 41 40 38 39 46 53 58 64 41 70 68 40 30 29 27 32 28 21 18 19 21 28 49 48 31 32 33
67 88 90 89 81 72 45 39 39 61 69 53 61 56 53 53 54 51 42 45 52 64 79 70 69 25 68 69 64 49 41 41 38 37 34 28 31 28 22 30 50 58 52 52
67 89 95 82 85 66 48 75 69 49 72 81 90 92 92 93 94 90 60 56 68 72 73 71 68 63 66 61 56 24 32 34 36 40 40 35 34 32 28 30 30 41 62 57
66 70 90 96 91 82 86 85 84 84 82 90 89 85 88 95 96 61 51 55 72 91 86 77 70 66 60 60 64 45 16 15 21 27 29 28 28 33 32 28 30 31 30 56
74 77 95 94 81 88 85 81 91 79 76 92 91 93 91 47 37 45 38 39 44 80 89 84 76 68 66 64 64 58 28 35 13 17 22 23 23 24 34 36 28 26 30 30
62 70 82 97 75 90 85 71 71 92 97 89 95 92 96 96 56 42 38 33 51 45 70 74 76 77 73 68 66 63 60 69 33 13 14 18 23 26 24 35 38 32 29 31
75 73 70 69 66 72 81 89 90 94 96 99 65 87 100 99 85 100 41 37 41 44 42 44 61 77 75 76 72 70 63 68 62 22 13 14 17 23 30 36 37 38 36 34
90 83 82 78 85 94 90 87 86 98 88 95 70 70 75 72 78 84 55 48 47 48 43 37 35 36 36 38 36 72 73 72 71 61 23 18 18 16 22 35 38 39 39 37

GFSCGP_700_rhum_234.txt.gz
RH
48 38 30 35 40 33 27 19 15 16 18 17 14 11 9 8 11 10 8 8 12 15 22 41 47 45 44 42 42 14 13 11 10 10 9 9 8 9 18 23 25 25 22 28
43 47 30 25 35 34 30 29 25 18 16 14 16 16 10 9 10 10 8 7 8 12 15 25 44 48 43 43 44 34 15 14 11 11 11 11 11 11 14 24 21 18 18 19
34 30 36 28 27 31 31 27 25 25 22 17 14 14 14 11 13 10 9 7 8 11 13 16 26 44 48 47 48 49 22 14 15 12 14 13 14 13 13 12 11 11 15 17
41 34 34 33 26 28 29 28 25 24 23 24 18 15 17 15 14 13 10 8 8 9 12 13 15 24 37 38 47 54 53 17 12 15 14 12 12 11 10 11 12 12 13 15
47 42 38 38 31 22 26 28 24 23 23 27 29 25 15 17 16 17 13 9 8 9 9 13 14 17 22 29 38 49 56 46 15 12 12 12 12 12 12 12 10 10 12 13
39 46 57 59 49 28 21 23 26 25 26 30 29 31 24 16 17 16 14 11 10 10 11 12 13 15 18 23 24 24 20 27 29 13 12 13 12 12 12 10 8 8 8 10
39 28 34 45 48 39 23 21 26 31 32 34 29 30 28 22 19 20 18 16 12 11 11 12 14 14 16 18 20 23 23 21 21 19 14 12 12 12 11 9 8 8 8 10
50 38 18 29 58 64 30 24 26 42 36 28 26 27 26 24 21 20 20 19 17 15 14 14 13 14 15 15 17 19 18 17 17 16 14 14 10 7 7 8 8 9 8 10
69 57 41 35 23 35 44 39 25 24 30 31 23 21 22 21 20 21 18 21 20 19 20 19 18 15 14 17 17 17 16 15 15 15 9 8 11 7 4 6 8 9 9 10
63 68 52 50 43 21 12 18 34 36 36 40 28 25 21 21 18 16 18 17 19 24 24 22 22 21 21 22 20 19 23 22 18 16 12 10 8 8 6 6 8 9 9 10
71 79 59 50 46 36 30 15 18 26 37 41 32 24 20 19 20 21 19 18 19 22 24 25 25 23 28 28 30 27 19 26 24 22 13 6 7 8 11 8 10 9 9 10
74 68 73 55 41 42 58 49 68 75 32 29 46 53 26 18 18 17 21 22 27 31 32 32 34 30 31 34 42 47 41 45 23 12 9 8 9 11 12 12 10 10 10 11
93 81 70 46 35 48 57 62 77 96 87 67 66 44 32 28 22 23 31 37 36 36 34 33 30 36 36 39 42 44 52 62 69 41 18 15 14 15 14 14 12 12 11 12
80 85 80 72 60 65 79 52 73 61 77 94 90 84 48 41 49 42 46 51 46 42 38 35 36 36 33 43 47 48 52 61 58 38 25 21 19 17 14 14 14 14 13 12
91 99 93 86 79 80 84 74 70 69 59 56 63 68 59 49 52 50 48 54 52 50 45 45 50 56 53 41 45 51 54 47 32 30 27 26 26 24 22 16 12 12 12 13
78 88 84 84 85 69 66 62 55 51 48 41 39 40 40 40 41 41 43 43 44 44 46 45 44 48 56 60 61 61 48 45 39 28 26 25 25 26 25 23 20 14 12 11
81 78 75 78 66 66 65 56 49 52 51 49 42 41 39 38 36 37 39 37 36 39 42 40 45 48 50 60 62 61 62 63 50 25 22 24 22 23 23 25 25 24 15 14
86 78 78 84 76 78 54 46 43 41 42 39 40 51 50 45 45 40 35 41 42 43 41 40 48 48 49 56 59 55 60 61 54 46 35 30 22 21 20 19 21 19 30 28
84 92 86 89 75 60 55 49 43 46 52 59 81 83 63 66 62 45 53 54 50 55 84 70 58 61 61 45 39 61 69 59 41 31 30 30 28 25 23 18 17 17 19 46
71 95 93 94 82 68 48 43 52 72 72 82 84 74 94 99 85 71 71 60 53 59 65 72 84 76 65 46 30 55 65 70 56 52 37 36 32 30 28 27 24 23 20 38
62 63 88 93 97 81 62 80 64 66 80 80 79 85 85 77 98 83 75 61 68 68 60 64 71 76 73 69 51 66 66 64 56 52 33 29 35 41 39 34 28 29 26 24
64 63 71 74 85 92 97 86 91 94 66 64 82 92 97 73 41 40 37 43 47 45 47 51 53 61 69 64 67 66 67 55 61 64 53 30 26 26 36 39 34 30 29 28
74 65 62 71 88 72 70 92 88 93 96 87 85 88 97 91 53 35 30 28 30 30 27 25 28 32 32 32 49 62 64 67 67 62 61 50 27 22 21 27 31 30 30 30
83 77 77 75 68 66 62 70 62 94 97 97 83 88 99 68 67 48 31 26 29 32 29 22 27 34 31 36 40 35 46 67 71 66 63 62 54 29 20 18 22 27 34 33
89 89 86 79 72 72 70 70 88 90 81 83 98 81 92 91 70 53 40 41 50 58 49 48 43 46 44 40 35 38 34 42 69 70 64 65 65 57 30 20 16 17 22 34
85 93 96 88 86 83 78 86 77 81 72 78 78 70 60 70 77 68 63 61 65 58 55 50 45 45 43 41 38 34 33 33 50 66 60 70 71 69 42 28 22 18 17 19